Regional Weather Roundup
Issued by NWS State College, PA

Home | Current Version | Previous Version | Graphics & Text | Print | Product List | Glossary On
Versions: 1 2 3 4 5 6 7 8 9 10 11 12 13 14 15 16 17 18 19 20 21 22 23 24 25 26 27 28 29 30 31 32 33 34 35 36 37 38 39 40 41 42 43 44 45 46 47 48 49 50
000
ASUS41 KCTP 200103
RWRCTP

REGIONAL WEATHER ROUNDUP
NATIONAL WEATHER SERVICE STATE COLLEGE PA
800 PM EST THU JAN 19 2017

Note: "fair" indicates few or no clouds below 12,000 feet with no
significant weather and/or obstructions to visibility.

* = STATION THAT DOES NOT REPORT PRECIPITATION /E.G. RAIN...SNOW...ETC/
    THUNDER OR FOG.

PAZ002>004-007>009-013>016-020>023-029>032-200200-
WESTERN PENNSYLVANIA

CITY           SKY/WX    TMP DP  RH WIND       PRES   REMARKS
ERIE           CLOUDY    35  33  92 NE5       29.99F FOG
MEADVILLE      CLOUDY    36  31  82 VRB3      29.96F
FRANKLIN*        N/A     36  30  80 SE5       29.98F
NEW CASTLE     FAIR      36  33  89 CALM      29.99F
BEAVER COUNTY  CLEAR     36  34  93 CALM      29.98F
BUTLER*        CLOUDY    30  28  93 CALM      30.01S
PITTSBURGH INT CLOUDY    36  33  89 CALM      29.97F
PITTSBURGH     CLOUDY    37  31  78 N3        29.96F
INDIANA*       CLEAR     32  32 100 CALM      30.00F
LATROBE        NOT AVBL
WASHINGTON CO* CLOUDY    30  28  93 CALM      29.96F
$$

PAZ004>006-010>012-017>019-024>028-033>037-041-042-045-046-049>053-200200-
CENTRAL PENNSYLVANIA

CITY           SKY/WX    TMP DP  RH WIND       PRES   REMARKS
BRADFORD       CLOUDY    34  34 100 CALM      29.95F FOG
DUBOIS         CLOUDY    35  30  82 CALM      29.96F
CLEARFIELD     CLEAR     36  33  89 N3        29.98F
JOHNSTOWN      CLOUDY    37  34  89 E3        29.94F
ALTOONA        CLOUDY    36  32  85 E3        29.98F
STATE COLLEGE  CLEAR     36  32  87 CALM      29.99F
WILLIAMSPORT   CLOUDY    35  32  88 CALM      30.02F
SELINSGROVE    CLOUDY    32  30  92 NW5       30.02F
FT INDIANTOWN  CLOUDY    35  35 100 NE3       30.00F
CAPITAL CITY   CLOUDY    37  31  78 CALM      30.01S
HARRISBURG     CLOUDY    40  35  83 CALM      30.01S
YORK           CLOUDY    32  31  96 CALM      30.01S
$$

PAZ038>040-043-044-047-048-054-055-060>062-067>071-200200-
EASTERN PENNSYLVANIA

CITY           SKY/WX    TMP DP  RH WIND       PRES   REMARKS
SCRANTON       CLOUDY    39  33  79 NE3       30.02F
MOUNT POCONO   CLOUDY    33  29  85 N6        29.98F
ALLENTOWN      CLOUDY    37  31  78 NE5       30.03F
QUAKERTOWN*    CLOUDY    32  32 100 N3        30.03S
READING        CLOUDY    37  34  89 NE5       30.00F
LANCASTER      CLOUDY    38  34  85 E5        30.00F
COATESVILLE    CLOUDY    39  34  81 N5        30.01F
POTTSTOWN      CLOUDY    38  32  79 NE3       30.03F
BLUE BELL      CLOUDY    32  32 100 CALM      30.01F
DOYLESTOWN     CLOUDY    38  32  79 N3        30.02F
WILLOW GROVE   NOT AVBL
NORTH PHILA    CLOUDY    37  32  82 E3        30.05F
PHILADELPHIA   CLOUDY    41  33  73 NE6       30.03F
$$




USA.gov is the U.S. government's official web portal to all federal, state and local government web resources and services.